EDT,Max TemperatureF,Mean TemperatureF,Min TemperatureF,Max Dew PointF,MeanDew PointF,Min DewpointF,Max Humidity, Mean Humidity, Min Humidity, Max Sea Level PressureIn, Mean Sea Level PressureIn, Min Sea Level PressureIn, Max VisibilityMiles, Mean VisibilityMiles, Min VisibilityMiles, Max Wind SpeedMPH, Mean Wind SpeedMPH, Max Gust SpeedMPH,PrecipitationIn, CloudCover, Events, WindDirDegrees
2013-4-1,37,30,23,28,18,13,75,57,38,30.17,30.04,29.83,10,10,4,23,11,39,T,4,Snow,321
2013-4-2,41,31,21,19,12,7,74,49,23,30.32,30.25,30.17,10,10,10,22,9,28,0.00,2,,308
2013-4-3,46,32,18,41,14,6,82,51,20,30.46,30.38,30.07,10,10,7,17,6,22,0.00,0,,343
2013-4-4,57,41,24,24,17,14,68,44,20,30.36,30.17,29.99,10,10,10,15,4,20,0.00,1,,222
2013-4-5,50,40,30,30,23,17,82,56,29,30.23,30.14,29.98,10,10,9,18,9,24,0.00,1,,345
2013-4-6,67,50,33,43,28,22,69,49,28,30.18,29.99,29.71,10,10,10,29,16,39,0.01,3,Rain,147
2013-4-7,63,53,42,47,39,33,83,65,47,30.00,29.87,29.66,10,10,7,33,12,44,0.01,4,Rain,305
2013-4-8,68,55,42,54,42,33,89,71,52,30.01,29.85,29.69,10,9,2,35,14,46,0.13,4,Rain,132
2013-4-9,77,60,42,59,47,38,89,68,46,30.03,29.94,29.82,10,10,7,26,9,38,T,6,Rain,137
2013-4-10,54,48,42,48,44,39,93,85,77,29.96,29.88,29.83,10,6,2,22,9,28,0.16,8,Rain-Thunderstorm,67
2013-4-11,44,43,41,43,41,39,96,93,89,29.88,29.73,29.60,10,5,1,25,13,32,1.35,8,Rain-Thunderstorm,92
2013-4-12,44,41,37,39,35,28,93,79,64,29.86,29.68,29.58,10,8,2,21,12,29,0.07,8,Rain,245
2013-4-13,44,39,34,34,29,24,82,66,49,30.01,29.91,29.85,10,9,2,24,11,30,0.01,8,Rain-Snow,259
2013-4-14,62,50,37,45,35,27,76,64,51,30.05,29.95,29.81,10,10,10,25,13,32,T,4,Rain,105
2013-4-15,66,56,46,57,50,44,96,79,62,29.96,29.88,29.80,10,8,1,22,11,28,0.64,6,Rain,202
2013-4-16,52,47,42,45,39,31,96,71,46,30.26,30.09,29.95,10,9,5,15,8,20,0.32,7,Rain,338
2013-4-17,53,49,44,46,40,32,93,74,54,30.28,30.13,29.91,10,9,2,35,13,44,0.77,8,Rain-Thunderstorm,82
2013-4-18,72,60,48,63,55,45,97,85,73,29.90,29.66,29.52,10,8,2,36,15,46,0.99,7,Rain,169
2013-4-19,49,42,34,52,32,27,86,75,64,29.88,29.64,29.51,10,9,4,31,18,40,0.12,8,Rain-Snow,246
2013-4-20,42,36,30,29,20,16,75,55,34,30.47,30.22,29.89,10,10,10,21,10,28,T,4,Snow,313
2013-4-21,52,39,26,29,22,18,69,52,34,30.58,30.50,30.42,10,10,10,20,11,25,0.00,0,,132
2013-4-22,64,50,35,34,30,28,76,51,26,30.40,30.27,30.12,10,10,10,18,9,21,0.00,0,,133
2013-4-23,66,53,39,54,43,36,93,71,48,30.12,29.96,29.87,10,8,2,20,12,25,0.55,6,Rain,194
2013-4-24,46,41,36,37,30,21,92,66,40,30.17,30.00,29.87,10,10,7,21,12,26,0.03,6,Rain,320
2013-4-25,51,42,33,36,30,27,76,58,39,30.37,30.22,30.12,10,10,10,24,11,29,T,3,Rain,267
2013-4-26,64,47,30,39,33,26,82,59,36,30.43,30.37,30.31,10,10,10,22,8,28,0.00,0,,176
2013-4-27,69,53,37,45,37,32,85,57,28,30.35,30.22,30.05,10,10,10,18,7,23,0.00,2,,143
2013-4-28,59,55,51,52,50,45,93,75,57,30.04,29.91,29.84,10,8,4,10,4,14,0.14,8,Rain,80
2013-4-29,71,58,44,54,49,43,100,76,51,29.96,29.90,29.87,10,5,0,13,7,20,0.00,3,Fog,203
2013-4-30,81,70,58,59,55,50,77,61,45,29.99,29.91,29.88,10,10,10,23,13,29,0.00,1,,175